Regional Weather Roundup
Issued by NWS

Home | Current Version | Previous Version | Graphics & Text | Print | Product List | Glossary On
Versions: 1 2 3 4 5 6 7 8 9 10 11 12 13 14 15 16 17 18 19 20 21 22 23 24 25 26 27 28 29 30 31 32 33 34 35 36 37 38 39 40 41 42 43 44 45 46 47 48 49 50
000
ASUS43 KFSD 301202
RWRSD

WEATHER ROUNDUP FOR SOUTH DAKOTA
NATIONAL WEATHER SERVICE SIOUX FALLS SD
700 AM CDT WED JUL 30 2014

NOTE: "FAIR" INDICATES FEW OR NO CLOUDS BELOW 12,000 FEET WITH NO
SIGNIFICANT WEATHER AND/OR OBSTRUCTIONS TO VISIBILITY.


SDZ001>005-009-010-012>017-301300-
NORTHWEST AND NORTH CENTRAL SOUTH DAKOTA

CITY           SKY/WX    TMP DP  RH WIND       PRES   REMARKS
BUFFALO          N/A     53  50  89 CALM      30.13R
FAITH            N/A     57  51  80 S12       30.16S
MOBRIDGE       MOCLDY    61  55  81 E6        30.13S
$$

SDZ012>016-024>037-041>051-057-063-072>074-301300-
SOUTHWEST AND SOUTH CENTRAL SOUTH DAKOTA

CITY           SKY/WX    TMP DP  RH WIND       PRES   REMARKS
RAPID CTY ARPT CLEAR     54  51  90 NW5       30.20S
PIERRE         MOCLDY    60  58  92 NE5       30.14S
CUSTER         CLEAR     53  47  79 NW7       30.32S
ELLSWORTH AFB  CLEAR     55  52  89 NW7       30.19F
PHILIP         CLEAR     52  48  86 CALM      30.17F
PINE RIDGE     MOCLDY    47  46  97 CALM      30.24S
WINNER         FAIR      58  49  72 SW6       30.17R
$$

SDZ004>011-016>023-039-040-301300-
NORTHEAST SOUTH DAKOTA

CITY           SKY/WX    TMP DP  RH WIND       PRES   REMARKS
ABERDEEN       CLEAR     50  49  96 E5        30.16R
WATERTOWN      CLEAR     50  49  96 CALM      30.16S
SISSETON         N/A     52  51  97 N3        30.13S
$$

SDZ017-020-022-023-036>040-048>070-301300-
SOUTHEAST SOUTH DAKOTA

CITY           SKY/WX    TMP DP  RH WIND       PRES   REMARKS
SIOUX FALLS    PTCLDY    53  52  96 CALM      30.16R
HURON          CLEAR     51  50  96 CALM      30.16R FOG
CHAMBERLAIN    PTCLDY    52  49  89 CALM      30.17S
MITCHELL       CLEAR     53  52  96 CALM      30.16S
YANKTON        MOCLDY    55  52  88 CALM      30.16S
$$

ABBREVIATIONS USED IN REMARKS
   TC - TEMPERATURE IN CELSIUS
  WCI - WIND CHILL INDEX
   HX - HEAT INDEX
  VSB - VISIBILITY




USA.gov is the U.S. government's official web portal to all federal, state and local government web resources and services.